Menu Close Menu
Station Historical Data
Daily Summary for October 3, 2017 Units:  Metric    English   Both
« Previous Day
Next Day »
Daily Weekly Monthly Yearly Custom
  High: Low: Average:
Temperature: 25.7 °C 14.4 °C 19.4 °C
Dew Point: 15.4 °C 12.3 °C 13.6 °C
Humidity: 88% 51% 70%
Wind Speed: 22.5km/h 3.2km/h 8.5km/h
Wind Gust: 33.8km/h - -
Wind- - ENE
Pressure: 1032.1 hPa 1028 hPa -
Precipitation: 0 mm    
Historical Graphs
 
 
Tabular Data for October 3, 2017
Time Temperature Dew Point Pressure Wind Wind Speed Wind Gust Humidity Rainfall Rate (Hourly) solar Conditions
00:00 18.1 °C 13.4 °C 1028.3 hPa East 8 km/h 8 km/h 74% 0 mm WeatherDisplay:10.37 W/m2 SCT
00:05 18.1 °C 13.4 °C 1028.3 hPa East 8 km/h 8 km/h 74% 0 mm WeatherDisplay:10.37 W/m2 SCT
00:10 18.1 °C 13.4 °C 1028.3 hPa East 8 km/h 8 km/h 74% 0 mm WeatherDisplay:10.37 W/m2 SCT
00:15 18.2 °C 13.4 °C 1028.3 hPa East 8 km/h 8 km/h 74% 0 mm WeatherDisplay:10.37 W/m2 FEW
00:20 18.2 °C 13.2 °C 1028 hPa East 8 km/h 8 km/h 73% 0 mm WeatherDisplay:10.37 W/m2 FEW
00:25 18.2 °C 13.4 °C 1028 hPa East 8 km/h 8 km/h 74% 0 mm WeatherDisplay:10.37 W/m2 FEW
00:30 18.2 °C 13.2 °C 1028 hPa East 8 km/h 8 km/h 73% 0 mm WeatherDisplay:10.37 W/m2 FEW
00:35 18.2 °C 13.2 °C 1028 hPa East 8 km/h 8 km/h 73% 0 mm WeatherDisplay:10.37 W/m2 FEW
00:40 18.1 °C 13.2 °C 1028 hPa East 8 km/h 8 km/h 73% 0 mm WeatherDisplay:10.37 W/m2 FEW
00:45 18.2 °C 13.2 °C 1028 hPa East 8 km/h 8 km/h 73% 0 mm WeatherDisplay:10.37 W/m2 FEW
00:50 18.2 °C 13.2 °C 1028 hPa East 8 km/h 8 km/h 73% 0 mm WeatherDisplay:10.37 W/m2 FEW
00:55 18.1 °C 13.3 °C 1028 hPa East 8 km/h 8 km/h 74% 0 mm WeatherDisplay:10.37 W/m2 FEW
01:00 18 °C 13.3 °C 1028 hPa East 8 km/h 8 km/h 74% 0 mm WeatherDisplay:10.37 W/m2 FEW
01:05 18 °C 13.3 °C 1028 hPa East 8 km/h 8 km/h 74% 0 mm WeatherDisplay:10.37 W/m2 FEW
01:10 18 °C 13.3 °C 1028 hPa East 8 km/h 8 km/h 74% 0 mm WeatherDisplay:10.37 W/m2 FEW
01:15 17.9 °C 13.2 °C 1028 hPa ENE 4.8 km/h 8 km/h 74% 0 mm WeatherDisplay:10.37 W/m2 SCT
01:20 17.9 °C 13.2 °C 1028 hPa ENE 4.8 km/h 4.8 km/h 74% 0 mm WeatherDisplay:10.37 W/m2 SCT
01:25 17.9 °C 13.2 °C 1028 hPa ENE 4.8 km/h 4.8 km/h 74% 0 mm WeatherDisplay:10.37 W/m2 SCT
01:30 17.9 °C 13.2 °C 1028 hPa ENE 4.8 km/h 4.8 km/h 74% 0 mm WeatherDisplay:10.37 W/m2 SCT
01:40 18 °C 13.3 °C 1028 hPa ENE 4.8 km/h 4.8 km/h 74% 0 mm WeatherDisplay:10.37 W/m2 SCT
01:45 17.9 °C 13.2 °C 1028 hPa ENE 4.8 km/h 4.8 km/h 74% 0 mm WeatherDisplay:10.37 W/m2 SCT
01:50 17.9 °C 13.2 °C 1028 hPa ENE 4.8 km/h 4.8 km/h 74% 0 mm WeatherDisplay:10.37 W/m2 SCT
01:55 17.9 °C 13.2 °C 1028 hPa ENE 4.8 km/h 4.8 km/h 74% 0 mm WeatherDisplay:10.37 W/m2 SCT
02:00 17.9 °C 13.2 °C 1028.3 hPa ENE 4.8 km/h 4.8 km/h 74% 0 mm WeatherDisplay:10.37 W/m2 SCT
02:05 17.8 °C 13.1 °C 1028.3 hPa ENE 4.8 km/h 4.8 km/h 74% 0 mm WeatherDisplay:10.37 W/m2 SCT
02:10 17.8 °C 13.1 °C 1028.3 hPa ENE 4.8 km/h 4.8 km/h 74% 0 mm WeatherDisplay:10.37 W/m2 SCT
02:15 17.8 °C 13.1 °C 1028.3 hPa ENE 9.7 km/h 9.7 km/h 74% 0 mm WeatherDisplay:10.37 W/m2 SCT
02:20 17.7 °C 13 °C 1028.3 hPa East 9.7 km/h 9.7 km/h 74% 0 mm WeatherDisplay:10.37 W/m2 SCT
02:25 17.7 °C 13 °C 1028.3 hPa East 9.7 km/h 9.7 km/h 74% 0 mm WeatherDisplay:10.37 W/m2 SCT
02:30 17.6 °C 12.9 °C 1028.3 hPa East 9.7 km/h 9.7 km/h 74% 0 mm WeatherDisplay:10.37 W/m2 SCT
02:35 17.6 °C 13.1 °C 1028 hPa East 9.7 km/h 9.7 km/h 75% 0 mm WeatherDisplay:10.37 W/m2 SCT
02:45 17.4 °C 12.9 °C 1028 hPa East 9.7 km/h 9.7 km/h 75% 0 mm WeatherDisplay:10.37 W/m2 SCT
02:50 17.4 °C 12.9 °C 1028 hPa East 9.7 km/h 9.7 km/h 75% 0 mm WeatherDisplay:10.37 W/m2 SCT
02:55 17.3 °C 12.8 °C 1028 hPa East 9.7 km/h 9.7 km/h 75% 0 mm WeatherDisplay:10.37 W/m2 SCT
03:00 17.3 °C 12.8 °C 1028 hPa East 9.7 km/h 9.7 km/h 75% 0 mm WeatherDisplay:10.37 W/m2 SCT
03:05 17.3 °C 12.8 °C 1028 hPa East 9.7 km/h 9.7 km/h 75% 0 mm WeatherDisplay:10.37 W/m2 SCT
03:10 17.3 °C 12.8 °C 1028 hPa East 9.7 km/h 9.7 km/h 75% 0 mm WeatherDisplay:10.37 W/m2 SCT
03:15 17.2 °C 12.7 °C 1028 hPa East 4.8 km/h 9.7 km/h 75% 0 mm WeatherDisplay:10.37 W/m2 FEW
03:20 17.2 °C 12.9 °C 1028 hPa East 4.8 km/h 4.8 km/h 76% 0 mm WeatherDisplay:10.37 W/m2 FEW
03:25 17.1 °C 12.9 °C 1028 hPa East 4.8 km/h 4.8 km/h 76% 0 mm WeatherDisplay:10.37 W/m2 FEW
03:30 17.1 °C 12.8 °C 1028 hPa East 4.8 km/h 4.8 km/h 76% 0 mm WeatherDisplay:10.37 W/m2 FEW
03:35 17.1 °C 12.8 °C 1028 hPa East 4.8 km/h 4.8 km/h 76% 0 mm WeatherDisplay:10.37 W/m2 FEW
03:40 16.9 °C 12.9 °C 1028 hPa East 4.8 km/h 4.8 km/h 77% 0 mm WeatherDisplay:10.37 W/m2 FEW
03:50 16.9 °C 12.8 °C 1028 hPa East 4.8 km/h 4.8 km/h 77% 0 mm WeatherDisplay:10.37 W/m2 FEW
03:55 16.8 °C 12.8 °C 1028 hPa East 4.8 km/h 4.8 km/h 77% 0 mm WeatherDisplay:10.37 W/m2 FEW
04:00 16.8 °C 12.9 °C 1028 hPa East 4.8 km/h 4.8 km/h 78% 0 mm WeatherDisplay:10.37 W/m2 FEW
04:05 16.7 °C 12.9 °C 1028 hPa East 4.8 km/h 4.8 km/h 78% 0 mm WeatherDisplay:10.37 W/m2 FEW
04:10 16.7 °C 12.9 °C 1028 hPa East 4.8 km/h 4.8 km/h 78% 0 mm WeatherDisplay:10.37 W/m2 FEW
04:15 16.7 °C 12.8 °C 1028 hPa East 4.8 km/h 4.8 km/h 78% 0 mm WeatherDisplay:10.37 W/m2 FEW
04:20 16.6 °C 12.8 °C 1028 hPa East 4.8 km/h 4.8 km/h 78% 0 mm WeatherDisplay:10.37 W/m2 FEW
04:25 16.6 °C 12.8 °C 1028 hPa East 4.8 km/h 4.8 km/h 78% 0 mm WeatherDisplay:10.37 W/m2 FEW
04:30 16.6 °C 12.7 °C 1028.3 hPa East 4.8 km/h 4.8 km/h 78% 0 mm WeatherDisplay:10.37 W/m2 FEW
04:35 16.6 °C 12.9 °C 1028.3 hPa East 4.8 km/h 4.8 km/h 79% 0 mm WeatherDisplay:10.37 W/m2 FEW
04:40 16.6 °C 12.9 °C 1028.3 hPa East 4.8 km/h 4.8 km/h 79% 0 mm WeatherDisplay:10.37 W/m2 FEW
04:45 16.4 °C 12.8 °C 1028.3 hPa East 4.8 km/h 4.8 km/h 79% 0 mm WeatherDisplay:10.37 W/m2 FEW
04:50 16.4 °C 12.9 °C 1028.3 hPa East 4.8 km/h 4.8 km/h 80% 0 mm WeatherDisplay:10.37 W/m2 FEW
04:55 16.3 °C 12.9 °C 1028.3 hPa East 4.8 km/h 4.8 km/h 80% 0 mm WeatherDisplay:10.37 W/m2 FEW
05:00 16.3 °C 12.8 °C 1028.3 hPa East 4.8 km/h 4.8 km/h 80% 0 mm WeatherDisplay:10.37 W/m2 FEW
05:05 16.2 °C 12.7 °C 1028.3 hPa East 4.8 km/h 4.8 km/h 80% 0 mm WeatherDisplay:10.37 W/m2 FEW
05:10 16.1 °C 12.8 °C 1028.7 hPa East 4.8 km/h 4.8 km/h 81% 0 mm WeatherDisplay:10.37 W/m2 FEW
05:15 16 °C 12.7 °C 1028.7 hPa ENE 3.2 km/h 4.8 km/h 81% 0 mm WeatherDisplay:10.37 W/m2 CLR
05:20 15.9 °C 12.8 °C 1028.7 hPa ENE 3.2 km/h 3.2 km/h 82% 0 mm WeatherDisplay:10.37 W/m2 CLR
05:25 15.8 °C 12.7 °C 1028.7 hPa ENE 3.2 km/h 3.2 km/h 82% 0 mm WeatherDisplay:10.37 W/m2 CLR
05:30 15.7 °C 12.6 °C 1028.7 hPa ENE 3.2 km/h 3.2 km/h 82% 0 mm WeatherDisplay:10.37 W/m2 CLR
05:40 15.7 °C 12.8 °C 1028.7 hPa ENE 3.2 km/h 3.2 km/h 83% 0 mm WeatherDisplay:10.37 W/m2 CLR
05:45 15.7 °C 12.8 °C 1028.7 hPa ENE 3.2 km/h 3.2 km/h 83% 0 mm WeatherDisplay:10.37 W/m2 CLR
05:50 15.6 °C 12.7 °C 1029 hPa ENE 3.2 km/h 3.2 km/h 83% 0 mm WeatherDisplay:10.37 W/m2 CLR
05:55 15.6 °C 12.7 °C 1029 hPa ENE 3.2 km/h 3.2 km/h 83% 0 mm WeatherDisplay:10.37 W/m2 CLR
06:00 15.5 °C 12.6 °C 1029 hPa ENE 3.2 km/h 3.2 km/h 83% 0 mm WeatherDisplay:10.37 W/m2 CLR
06:05 15.4 °C 12.7 °C 1029 hPa ENE 3.2 km/h 3.2 km/h 84% 0 mm WeatherDisplay:10.37 W/m2 CLR
06:10 15.4 °C 12.7 °C 1029 hPa ENE 3.2 km/h 3.2 km/h 84% 0 mm WeatherDisplay:10.37 W/m2 CLR
06:15 15.3 °C 12.7 °C 1029 hPa ENE 4.8 km/h 4.8 km/h 84% 0 mm WeatherDisplay:10.37 W/m2 CLR
06:20 15.3 °C 12.6 °C 1029.3 hPa ENE 4.8 km/h 4.8 km/h 84% 0 mm WeatherDisplay:10.37 W/m2 CLR
06:25 15.2 °C 12.6 °C 1029.3 hPa ENE 4.8 km/h 4.8 km/h 84% 0 mm WeatherDisplay:10.37 W/m2 CLR
06:30 15.1 °C 12.6 °C 1029.3 hPa ENE 4.8 km/h 4.8 km/h 85% 0 mm WeatherDisplay:10.37 W/m2 CLR
06:35 15.1 °C 12.6 °C 1029.3 hPa ENE 4.8 km/h 4.8 km/h 85% 0 mm WeatherDisplay:10.37 W/m2 CLR
06:40 15 °C 12.5 °C 1029.7 hPa ENE 4.8 km/h 4.8 km/h 85% 0 mm WeatherDisplay:10.37 W/m2 CLR
06:45 14.9 °C 12.6 °C 1029.7 hPa ENE 4.8 km/h 4.8 km/h 86% 0 mm WeatherDisplay:10.37 W/m2 CLR
06:50 14.8 °C 12.4 °C 1029.7 hPa ENE 4.8 km/h 4.8 km/h 86% 0 mm WeatherDisplay:10.37 W/m2 CLR
06:55 14.7 °C 12.4 °C 1029.7 hPa ENE 4.8 km/h 4.8 km/h 86% 0 mm WeatherDisplay:10.37 W/m2 CLR
07:00 14.7 °C 12.3 °C 1029.7 hPa ENE 4.8 km/h 4.8 km/h 86% 0 mm WeatherDisplay:10.37 W/m2 CLR
07:05 14.6 °C 12.4 °C 1029.7 hPa ENE 4.8 km/h 4.8 km/h 87% 0 mm WeatherDisplay:10.37 W/m2 CLR
07:10 14.6 °C 12.4 °C 1029.7 hPa ENE 4.8 km/h 4.8 km/h 87% 0 mm WeatherDisplay:10.37 W/m2 CLR
07:15 14.6 °C 12.4 °C 1029.7 hPa ENE 4.8 km/h 4.8 km/h 87% 0 mm WeatherDisplay:10.37 W/m2 FEW
07:20 14.6 °C 12.4 °C 1030 hPa ENE 4.8 km/h 4.8 km/h 87% 0 mm WeatherDisplay:10.37 W/m2 FEW
07:25 14.6 °C 12.4 °C 1030 hPa ENE 4.8 km/h 4.8 km/h 87% 0 mm WeatherDisplay:10.37 W/m2 FEW
07:30 14.6 °C 12.4 °C 1030 hPa ENE 4.8 km/h 4.8 km/h 87% 0 mm WeatherDisplay:10.37 W/m2 FEW
07:35 14.6 °C 12.4 °C 1030 hPa ENE 4.8 km/h 4.8 km/h 87% 0 mm WeatherDisplay:10.37 W/m2 FEW
07:40 14.6 °C 12.4 °C 1030 hPa ENE 4.8 km/h 4.8 km/h 87% 0 mm WeatherDisplay:10.37 W/m2 FEW
07:45 14.6 °C 12.4 °C 1030.4 hPa ENE 4.8 km/h 4.8 km/h 87% 0 mm WeatherDisplay:10.37 W/m2 FEW
07:50 14.5 °C 12.3 °C 1030.4 hPa ENE 4.8 km/h 4.8 km/h 87% 0 mm WeatherDisplay:10.37 W/m2 FEW
07:55 14.4 °C 12.5 °C 1030.4 hPa ENE 4.8 km/h 4.8 km/h 88% 0 mm WeatherDisplay:10.37 W/m2 FEW
08:00 14.4 °C 12.5 °C 1030.4 hPa ENE 4.8 km/h 4.8 km/h 88% 0 mm WeatherDisplay:10.37 W/m2 FEW
08:05 14.4 °C 12.5 °C 1030.4 hPa ENE 4.8 km/h 4.8 km/h 88% 0 mm WeatherDisplay:10.37 W/m2 FEW
08:10 14.6 °C 12.6 °C 1030.4 hPa ENE 4.8 km/h 4.8 km/h 88% 0 mm WeatherDisplay:10.37 W/m2 FEW
08:15 14.7 °C 12.8 °C 1030.4 hPa ENE 4.8 km/h 4.8 km/h 88% 0 mm WeatherDisplay:10.37 W/m2 SCT
08:20 14.9 °C 12.8 °C 1030.4 hPa ENE 4.8 km/h 4.8 km/h 87% 0 mm WeatherDisplay:10.37 W/m2 SCT
08:25 15.1 °C 12.8 °C 1030.7 hPa ENE 4.8 km/h 4.8 km/h 86% 0 mm WeatherDisplay:10.37 W/m2 SCT
08:30 15.2 °C 12.9 °C 1030.7 hPa ENE 4.8 km/h 4.8 km/h 86% 0 mm WeatherDisplay:10.37 W/m2 SCT
08:35 15.4 °C 12.9 °C 1030.7 hPa ENE 4.8 km/h 4.8 km/h 85% 0 mm WeatherDisplay:10.37 W/m2 SCT
08:40 15.6 °C 13.1 °C 1031 hPa ENE 4.8 km/h 4.8 km/h 85% 0 mm WeatherDisplay:10.37 W/m2 SCT
08:45 15.8 °C 13.1 °C 1031 hPa ENE 4.8 km/h 4.8 km/h 84% 0 mm WeatherDisplay:10.37 W/m2 SCT
08:50 15.9 °C 13.3 °C 1031 hPa ENE 4.8 km/h 4.8 km/h 84% 0 mm WeatherDisplay:10.37 W/m2 SCT
08:55 16.2 °C 13.4 °C 1031 hPa ENE 4.8 km/h 4.8 km/h 84% 0 mm WeatherDisplay:10.37 W/m2 SCT
09:00 16.3 °C 13.4 °C 1031 hPa ENE 4.8 km/h 4.8 km/h 83% 0 mm WeatherDisplay:10.37 W/m2 SCT
09:05 16.4 °C 13.6 °C 1031 hPa ENE 4.8 km/h 4.8 km/h 83% 0 mm WeatherDisplay:10.37 W/m2 SCT
09:10 16.7 °C 13.7 °C 1031 hPa ENE 4.8 km/h 4.8 km/h 83% 0 mm WeatherDisplay:10.37 W/m2 SCT
09:15 16.9 °C 14 °C 1031 hPa ENE 8 km/h 8 km/h 83% 0 mm WeatherDisplay:10.37 W/m2 FEW
09:20 17.1 °C 13.9 °C 1031 hPa ENE 8 km/h 8 km/h 82% 0 mm WeatherDisplay:10.37 W/m2 FEW
09:25 17.2 °C 14.1 °C 1031 hPa ENE 8 km/h 8 km/h 82% 0 mm WeatherDisplay:10.37 W/m2 FEW
09:30 17.3 °C 14.1 °C 1031 hPa ENE 8 km/h 8 km/h 81% 0 mm WeatherDisplay:10.37 W/m2 FEW
09:35 17.5 °C 14.2 °C 1031.4 hPa ENE 8 km/h 8 km/h 81% 0 mm WeatherDisplay:10.37 W/m2 FEW
09:40 17.7 °C 14.4 °C 1031.4 hPa ENE 8 km/h 8 km/h 81% 0 mm WeatherDisplay:10.37 W/m2 FEW
09:45 17.9 °C 14.6 °C 1031.4 hPa ENE 8 km/h 8 km/h 81% 0 mm WeatherDisplay:10.37 W/m2 FEW
09:50 18.1 °C 14.6 °C 1031.4 hPa ENE 8 km/h 8 km/h 80% 0 mm WeatherDisplay:10.37 W/m2 FEW
09:55 18.3 °C 14.8 °C 1031.4 hPa ENE 8 km/h 8 km/h 80% 0 mm WeatherDisplay:10.37 W/m2 FEW
10:00 18.4 °C 14.5 °C 1031.4 hPa ENE 8 km/h 8 km/h 78% 0 mm WeatherDisplay:10.37 W/m2 FEW
10:05 18.6 °C 14.4 °C 1031.4 hPa ENE 8 km/h 8 km/h 77% 0 mm WeatherDisplay:10.37 W/m2 FEW
10:10 18.8 °C 14.7 °C 1031.7 hPa ENE 8 km/h 8 km/h 77% 0 mm WeatherDisplay:10.37 W/m2 FEW
10:25 19.3 °C 14.5 °C 1031.7 hPa East 11.3 km/h 11.3 km/h 74% 0 mm WeatherDisplay:10.37 W/m2 FEW
10:30 19.4 °C 14.7 °C 1031.7 hPa East 11.3 km/h 11.3 km/h 74% 0 mm WeatherDisplay:10.37 W/m2 FEW
10:35 19.7 °C 14.9 °C 1031.7 hPa East 11.3 km/h 11.3 km/h 74% 0 mm WeatherDisplay:10.37 W/m2 FEW
10:40 19.8 °C 14.6 °C 1031.7 hPa East 11.3 km/h 11.3 km/h 72% 0 mm WeatherDisplay:10.37 W/m2 FEW
10:45 20.1 °C 14.8 °C 1032.1 hPa East 11.3 km/h 11.3 km/h 72% 0 mm WeatherDisplay:10.37 W/m2 FEW
10:50 20.3 °C 14.7 °C 1032.1 hPa East 11.3 km/h 11.3 km/h 70% 0 mm WeatherDisplay:10.37 W/m2 FEW
10:55 20.6 °C 14.7 °C 1032.1 hPa East 11.3 km/h 11.3 km/h 69% 0 mm WeatherDisplay:10.37 W/m2 FEW
11:00 21 °C 15.3 °C 1032.1 hPa East 11.3 km/h 11.3 km/h 70% 0 mm WeatherDisplay:10.37 W/m2 FEW
11:05 21.5 °C 15.1 °C 1032.1 hPa East 11.3 km/h 11.3 km/h 67% 0 mm WeatherDisplay:10.37 W/m2 FEW
11:10 21.8 °C 15.2 °C 1032.1 hPa East 11.3 km/h 11.3 km/h 66% 0 mm WeatherDisplay:10.37 W/m2 FEW
11:15 22 °C 15.1 °C 1032.1 hPa East 11.3 km/h 11.3 km/h 65% 0 mm WeatherDisplay:10.37 W/m2 FEW
11:20 22.1 °C 15.2 °C 1032.1 hPa East 11.3 km/h 11.3 km/h 65% 0 mm WeatherDisplay:10.37 W/m2 FEW
11:25 22.3 °C 15.2 °C 1032.1 hPa East 11.3 km/h 11.3 km/h 64% 0 mm WeatherDisplay:10.37 W/m2 FEW
11:30 22.6 °C 15.4 °C 1032.1 hPa East 11.3 km/h 11.3 km/h 64% 0 mm WeatherDisplay:10.37 W/m2 FEW
11:35 22.7 °C 14.8 °C 1031.7 hPa East 11.3 km/h 11.3 km/h 61% 0 mm WeatherDisplay:10.37 W/m2 FEW
11:40 22.7 °C 15.1 °C 1031.7 hPa East 11.3 km/h 11.3 km/h 62% 0 mm WeatherDisplay:10.37 W/m2 FEW
11:50 22.8 °C 14.9 °C 1031.7 hPa East 11.3 km/h 11.3 km/h 61% 0 mm WeatherDisplay:10.37 W/m2 FEW
11:55 22.6 °C 14.9 °C 1031.7 hPa East 11.3 km/h 11.3 km/h 62% 0 mm WeatherDisplay:10.37 W/m2 FEW
12:00 22.8 °C 14.9 °C 1031.7 hPa East 11.3 km/h 11.3 km/h 61% 0 mm WeatherDisplay:10.37 W/m2 FEW
12:05 23.1 °C 15.1 °C 1031.7 hPa East 11.3 km/h 11.3 km/h 61% 0 mm WeatherDisplay:10.37 W/m2 FEW
12:10 23.4 °C 15.2 °C 1031.7 hPa East 11.3 km/h 11.3 km/h 60% 0 mm WeatherDisplay:10.37 W/m2 FEW
12:15 23.2 °C 15 °C 1031.7 hPa East 22.5 km/h 33.8 km/h 60% 0 mm WeatherDisplay:10.37 W/m2 FEW
12:20 23.1 °C 14.9 °C 1031.7 hPa East 22.5 km/h 33.8 km/h 60% 0 mm WeatherDisplay:10.37 W/m2 FEW
12:25 23.1 °C 14.9 °C 1031.7 hPa East 22.5 km/h 33.8 km/h 60% 0 mm WeatherDisplay:10.37 W/m2 FEW
12:30 23.2 °C 15.2 °C 1031.7 hPa East 22.5 km/h 33.8 km/h 61% 0 mm WeatherDisplay:10.37 W/m2 FEW
12:40 23.1 °C 14.9 °C 1031.4 hPa East 22.5 km/h 33.8 km/h 60% 0 mm WeatherDisplay:10.37 W/m2 FEW
12:45 23.3 °C 15.1 °C 1031.4 hPa East 22.5 km/h 33.8 km/h 60% 0 mm WeatherDisplay:10.37 W/m2 FEW
12:50 23.7 °C 14.9 °C 1031.4 hPa East 22.5 km/h 33.8 km/h 58% 0 mm WeatherDisplay:10.37 W/m2 FEW
12:55 23.7 °C 14.7 °C 1031.4 hPa East 22.5 km/h 33.8 km/h 57% 0 mm WeatherDisplay:10.37 W/m2 FEW
13:00 23.8 °C 14.8 °C 1031.4 hPa East 22.5 km/h 33.8 km/h 57% 0 mm WeatherDisplay:10.37 W/m2 FEW
13:05 23.9 °C 15.2 °C 1031.4 hPa East 22.5 km/h 33.8 km/h 58% 0 mm WeatherDisplay:10.37 W/m2 FEW
13:10 23.9 °C 14.9 °C 1031 hPa East 22.5 km/h 33.8 km/h 57% 0 mm WeatherDisplay:10.37 W/m2 FEW
13:15 23.9 °C 14.6 °C 1031 hPa East 14.5 km/h 33.8 km/h 56% 0 mm WeatherDisplay:10.37 W/m2 SCT
13:20 23.8 °C 14.8 °C 1031 hPa East 14.5 km/h 14.5 km/h 57% 0 mm WeatherDisplay:10.37 W/m2 SCT
13:25 23.9 °C 14.9 °C 1031 hPa East 14.5 km/h 14.5 km/h 57% 0 mm WeatherDisplay:10.37 W/m2 SCT
13:30 24 °C 14.7 °C 1030.7 hPa East 14.5 km/h 14.5 km/h 56% 0 mm WeatherDisplay:10.37 W/m2 SCT
13:40 24.4 °C 15.1 °C 1030.7 hPa East 14.5 km/h 14.5 km/h 56% 0 mm WeatherDisplay:10.37 W/m2 SCT
13:45 24.5 °C 15.2 °C 1030.7 hPa East 14.5 km/h 14.5 km/h 56% 0 mm WeatherDisplay:10.37 W/m2 SCT
13:50 24.6 °C 14.9 °C 1030.7 hPa East 14.5 km/h 14.5 km/h 55% 0 mm WeatherDisplay:10.37 W/m2 SCT
13:55 24.7 °C 14.8 °C 1030.4 hPa East 14.5 km/h 14.5 km/h 54% 0 mm WeatherDisplay:10.37 W/m2 SCT
14:00 25 °C 15.3 °C 1030.4 hPa East 14.5 km/h 14.5 km/h 55% 0 mm WeatherDisplay:10.37 W/m2 SCT
14:05 24.9 °C 15 °C 1030.4 hPa East 14.5 km/h 14.5 km/h 54% 0 mm WeatherDisplay:10.37 W/m2 SCT
14:10 25.4 °C 15.2 °C 1030.4 hPa East 14.5 km/h 14.5 km/h 53% 0 mm WeatherDisplay:10.37 W/m2 SCT
14:15 25.6 °C 14.9 °C 1030.4 hPa East 11.3 km/h 14.5 km/h 52% 0 mm WeatherDisplay:10.37 W/m2 SCT
14:20 25.6 °C 14.7 °C 1030 hPa East 11.3 km/h 11.3 km/h 51% 0 mm WeatherDisplay:10.37 W/m2 SCT
14:25 25.4 °C 14.8 °C 1030 hPa East 11.3 km/h 11.3 km/h 52% 0 mm WeatherDisplay:10.37 W/m2 SCT
14:30 25.4 °C 14.8 °C 1030 hPa East 11.3 km/h 11.3 km/h 52% 0 mm WeatherDisplay:10.37 W/m2 SCT
14:40 25.1 °C 14.8 °C 1029.7 hPa East 11.3 km/h 11.3 km/h 53% 0 mm WeatherDisplay:10.37 W/m2 SCT
14:45 25.2 °C 14.9 °C 1029.7 hPa East 11.3 km/h 11.3 km/h 53% 0 mm WeatherDisplay:10.37 W/m2 SCT
14:55 25.7 °C 14.8 °C 1029.7 hPa East 11.3 km/h 11.3 km/h 51% 0 mm WeatherDisplay:10.37 W/m2 SCT
15:15 25.3 °C 14.8 °C 1029.7 hPa ENE 11.3 km/h 11.3 km/h 52% 0 mm WeatherDisplay:10.37 W/m2 SCT
15:20 25.3 °C 14.8 °C 1029.7 hPa West 11.3 km/h 11.3 km/h 52% 0 mm WeatherDisplay:10.37 W/m2 SCT
15:25 25.4 °C 15.1 °C 1029.3 hPa ENE 9.7 km/h 11.3 km/h 53% 0 mm WeatherDisplay:10.37 W/m2 SCT
15:35 25.1 °C 14.6 °C 1029.3 hPa ENE 9.7 km/h 9.7 km/h 52% 0 mm WeatherDisplay:10.37 W/m2 SCT
15:40 24.9 °C 14.7 °C 1029.3 hPa ENE 9.7 km/h 9.7 km/h 53% 0 mm WeatherDisplay:10.37 W/m2 SCT
15:45 24.6 °C 14.1 °C 1029.3 hPa ENE 9.7 km/h 9.7 km/h 52% 0 mm WeatherDisplay:10.37 W/m2 SCT
15:50 24.2 °C 14.3 °C 1029.3 hPa ENE 9.7 km/h 9.7 km/h 54% 0 mm WeatherDisplay:10.37 W/m2 SCT
15:55 24.2 °C 14.6 °C 1029.3 hPa ENE 9.7 km/h 9.7 km/h 55% 0 mm WeatherDisplay:10.37 W/m2 SCT
16:00 24.3 °C 14.1 °C 1029.3 hPa ENE 9.7 km/h 9.7 km/h 53% 0 mm WeatherDisplay:10.37 W/m2 SCT
16:05 24.2 °C 14.3 °C 1029.3 hPa ENE 9.7 km/h 9.7 km/h 54% 0 mm WeatherDisplay:10.37 W/m2 SCT
16:10 24.2 °C 14 °C 1029.3 hPa ENE 9.7 km/h 9.7 km/h 53% 0 mm WeatherDisplay:10.37 W/m2 SCT
16:15 24.3 °C 14.1 °C 1029.3 hPa ENE 8 km/h 9.7 km/h 53% 0 mm WeatherDisplay:10.37 W/m2 SCT
16:20 24.5 °C 14 °C 1029 hPa ENE 8 km/h 8 km/h 52% 0 mm WeatherDisplay:10.37 W/m2 SCT
16:25 24.5 °C 14.3 °C 1029 hPa ENE 8 km/h 8 km/h 53% 0 mm WeatherDisplay:10.37 W/m2 SCT
16:30 24.5 °C 14 °C 1029 hPa ENE 8 km/h 8 km/h 52% 0 mm WeatherDisplay:10.37 W/m2 SCT
16:35 24.5 °C 13.7 °C 1029 hPa ENE 8 km/h 8 km/h 51% 0 mm WeatherDisplay:10.37 W/m2 SCT
16:40 24.4 °C 13.6 °C 1029 hPa ENE 8 km/h 8 km/h 51% 0 mm WeatherDisplay:10.37 W/m2 SCT
16:45 24.3 °C 13.8 °C 1029 hPa ENE 8 km/h 8 km/h 52% 0 mm WeatherDisplay:10.37 W/m2 SCT
17:00 24.2 °C 13.7 °C 1029 hPa WNW 8 km/h 8 km/h 52% 0 mm WeatherDisplay:10.37 W/m2 SCT
17:10 24.1 °C 13.6 °C 1029 hPa WNW 8 km/h 8 km/h 52% 0 mm WeatherDisplay:10.37 W/m2 SCT
17:15 24 °C 13.8 °C 1029 hPa NE 12.9 km/h 12.9 km/h 53% 0 mm WeatherDisplay:10.37 W/m2 SCT
17:20 23.9 °C 13.5 °C 1029 hPa ENE 12.9 km/h 12.9 km/h 52% 0 mm WeatherDisplay:10.37 W/m2 SCT
17:30 23.8 °C 13.6 °C 1029 hPa ENE 12.9 km/h 12.9 km/h 53% 0 mm WeatherDisplay:10.37 W/m2 SCT
17:40 23.6 °C 13.4 °C 1029 hPa ENE 12.9 km/h 12.9 km/h 53% 0 mm WeatherDisplay:10.37 W/m2 SCT
17:45 23.5 °C 13.9 °C 1029 hPa ENE 12.9 km/h 12.9 km/h 55% 0 mm WeatherDisplay:10.37 W/m2 SCT
17:50 23.3 °C 13.8 °C 1029 hPa ENE 12.9 km/h 12.9 km/h 55% 0 mm WeatherDisplay:10.37 W/m2 SCT
17:55 23.3 °C 13.4 °C 1029 hPa ENE 12.9 km/h 12.9 km/h 54% 0 mm WeatherDisplay:10.37 W/m2 SCT
18:00 23.3 °C 13.7 °C 1029 hPa ENE 12.9 km/h 12.9 km/h 55% 0 mm WeatherDisplay:10.37 W/m2 SCT
18:05 23.2 °C 13.6 °C 1029 hPa ENE 12.9 km/h 12.9 km/h 55% 0 mm WeatherDisplay:10.37 W/m2 SCT
18:10 23 °C 13.8 °C 1029 hPa ENE 12.9 km/h 12.9 km/h 56% 0 mm WeatherDisplay:10.37 W/m2 SCT
18:25 22.8 °C 13.6 °C 1029 hPa ENE 12.9 km/h 12.9 km/h 56% 0 mm WeatherDisplay:10.37 W/m2 SCT
18:30 22.7 °C 13.8 °C 1029 hPa ENE 12.9 km/h 12.9 km/h 57% 0 mm WeatherDisplay:10.37 W/m2 SCT
18:40 22.6 °C 13.4 °C 1029 hPa ENE 12.9 km/h 12.9 km/h 56% 0 mm WeatherDisplay:10.37 W/m2 SCT
18:45 22.6 °C 13.3 °C 1029 hPa ENE 12.9 km/h 12.9 km/h 56% 0 mm WeatherDisplay:10.37 W/m2 SCT
18:50 22.4 °C 13.8 °C 1029 hPa ENE 12.9 km/h 12.9 km/h 58% 0 mm WeatherDisplay:10.37 W/m2 SCT
18:55 22.3 °C 13.4 °C 1029 hPa ENE 12.9 km/h 12.9 km/h 57% 0 mm WeatherDisplay:10.37 W/m2 SCT
19:00 22.3 °C 13.6 °C 1029 hPa ENE 12.9 km/h 12.9 km/h 58% 0 mm WeatherDisplay:10.37 W/m2 SCT
19:10 22.1 °C 13.7 °C 1029.3 hPa ENE 12.9 km/h 12.9 km/h 59% 0 mm WeatherDisplay:10.37 W/m2 SCT
19:15 21.9 °C 13.8 °C 1029.3 hPa ENE 11.3 km/h 12.9 km/h 60% 0 mm WeatherDisplay:10.37 W/m2 SCT
19:25 21.4 °C 13.9 °C 1029.3 hPa East 11.3 km/h 11.3 km/h 62% 0 mm WeatherDisplay:10.37 W/m2 SCT
19:30 21.2 °C 13.9 °C 1029.3 hPa East 11.3 km/h 11.3 km/h 63% 0 mm WeatherDisplay:10.37 W/m2 SCT
19:35 21.1 °C 13.7 °C 1029.3 hPa East 11.3 km/h 11.3 km/h 63% 0 mm WeatherDisplay:10.37 W/m2 SCT
19:40 20.9 °C 13.8 °C 1029.3 hPa East 11.3 km/h 11.3 km/h 64% 0 mm WeatherDisplay:10.37 W/m2 SCT
19:45 20.7 °C 13.7 °C 1029.3 hPa East 11.3 km/h 11.3 km/h 64% 0 mm WeatherDisplay:10.37 W/m2 SCT
19:50 20.6 °C 13.6 °C 1029.3 hPa East 11.3 km/h 11.3 km/h 64% 0 mm WeatherDisplay:10.37 W/m2 SCT
19:55 20.6 °C 13.6 °C 1029.7 hPa East 11.3 km/h 11.3 km/h 64% 0 mm WeatherDisplay:10.37 W/m2 SCT
20:00 20.7 °C 13.6 °C 1029.7 hPa East 11.3 km/h 11.3 km/h 64% 0 mm WeatherDisplay:10.37 W/m2 SCT
20:05 20.6 °C 13.5 °C 1029.7 hPa East 11.3 km/h 11.3 km/h 64% 0 mm WeatherDisplay:10.37 W/m2 SCT
20:10 20.4 °C 13.4 °C 1029.7 hPa East 11.3 km/h 11.3 km/h 64% 0 mm WeatherDisplay:10.37 W/m2 SCT
20:15 20.2 °C 13.4 °C 1029.7 hPa ENE 8 km/h 11.3 km/h 65% 0 mm WeatherDisplay:10.37 W/m2 FEW
20:20 20.1 °C 13.6 °C 1029.7 hPa ENE 8 km/h 8 km/h 66% 0 mm WeatherDisplay:10.37 W/m2 FEW
20:25 19.9 °C 13.4 °C 1030 hPa ENE 8 km/h 8 km/h 66% 0 mm WeatherDisplay:10.37 W/m2 FEW
20:30 19.8 °C 13.4 °C 1030 hPa ENE 8 km/h 8 km/h 67% 0 mm WeatherDisplay:10.37 W/m2 FEW
20:35 19.6 °C 13.6 °C 1030 hPa ENE 8 km/h 8 km/h 68% 0 mm WeatherDisplay:10.37 W/m2 FEW
20:40 19.4 °C 13.4 °C 1030 hPa ENE 8 km/h 8 km/h 68% 0 mm WeatherDisplay:10.37 W/m2 FEW
20:45 19.3 °C 13.5 °C 1030 hPa ENE 8 km/h 8 km/h 69% 0 mm WeatherDisplay:10.37 W/m2 FEW
20:50 19.2 °C 13.4 °C 1030 hPa ENE 8 km/h 8 km/h 69% 0 mm WeatherDisplay:10.37 W/m2 FEW
20:55 19.1 °C 13.3 °C 1030.4 hPa ENE 8 km/h 8 km/h 69% 0 mm WeatherDisplay:10.37 W/m2 FEW
21:00 19 °C 13.2 °C 1030.4 hPa ENE 8 km/h 8 km/h 69% 0 mm WeatherDisplay:10.37 W/m2 FEW
21:05 18.9 °C 13.3 °C 1030.4 hPa ENE 8 km/h 8 km/h 70% 0 mm WeatherDisplay:10.37 W/m2 FEW
21:10 18.9 °C 13.3 °C 1030.4 hPa ENE 8 km/h 8 km/h 70% 0 mm WeatherDisplay:10.37 W/m2 FEW
21:15 18.8 °C 13.2 °C 1030.4 hPa ENE 4.8 km/h 8 km/h 70% 0 mm WeatherDisplay:10.37 W/m2 CLR
21:30 18.6 °C 13 °C 1030.7 hPa ENE 4.8 km/h 4.8 km/h 70% 0 mm WeatherDisplay:10.37 W/m2 CLR
21:45 18.4 °C 13.1 °C 1030.7 hPa ENE 4.8 km/h 4.8 km/h 71% 0 mm WeatherDisplay:10.37 W/m2 CLR
21:50 18.4 °C 13 °C 1030.7 hPa ENE 4.8 km/h 4.8 km/h 71% 0 mm WeatherDisplay:10.37 W/m2 CLR
21:55 18.3 °C 12.8 °C 1030.7 hPa ENE 4.8 km/h 4.8 km/h 70% 0 mm WeatherDisplay:10.37 W/m2 CLR
22:00 18.3 °C 12.8 °C 1030.7 hPa ENE 4.8 km/h 4.8 km/h 70% 0 mm WeatherDisplay:10.37 W/m2 CLR
22:05 18.3 °C 12.9 °C 1030.7 hPa ENE 4.8 km/h 4.8 km/h 71% 0 mm WeatherDisplay:10.37 W/m2 CLR
22:10 18.2 °C 12.9 °C 1030.7 hPa ENE 4.8 km/h 4.8 km/h 71% 0 mm WeatherDisplay:10.37 W/m2 CLR
22:15 18.2 °C 12.8 °C 1030.7 hPa East 4.8 km/h 4.8 km/h 71% 0 mm WeatherDisplay:10.37 W/m2 CLR
22:20 18.1 °C 13 °C 1030.7 hPa East 4.8 km/h 4.8 km/h 72% 0 mm WeatherDisplay:10.37 W/m2 CLR
22:25 18.1 °C 12.9 °C 1030.7 hPa East 4.8 km/h 4.8 km/h 72% 0 mm WeatherDisplay:10.37 W/m2 CLR
22:30 18.1 °C 12.7 °C 1030.7 hPa East 4.8 km/h 4.8 km/h 71% 0 mm WeatherDisplay:10.37 W/m2 CLR
22:35 18.1 °C 13 °C 1030.7 hPa East 4.8 km/h 4.8 km/h 72% 0 mm WeatherDisplay:10.37 W/m2 CLR
22:40 18.2 °C 12.8 °C 1030.7 hPa East 4.8 km/h 4.8 km/h 71% 0 mm WeatherDisplay:10.37 W/m2 CLR
22:45 18.3 °C 12.7 °C 1030.7 hPa East 4.8 km/h 4.8 km/h 70% 0 mm WeatherDisplay:10.37 W/m2 CLR
22:50 18.4 °C 12.6 °C 1030.7 hPa East 4.8 km/h 4.8 km/h 69% 0 mm WeatherDisplay:10.37 W/m2 CLR
22:55 18.5 °C 12.7 °C 1030.7 hPa East 4.8 km/h 4.8 km/h 69% 0 mm WeatherDisplay:10.37 W/m2 CLR
23:00 18.6 °C 12.6 °C 1030.7 hPa East 4.8 km/h 4.8 km/h 68% 0 mm WeatherDisplay:10.37 W/m2 CLR
23:05 18.6 °C 12.6 °C 1031 hPa East 4.8 km/h 4.8 km/h 68% 0 mm WeatherDisplay:10.37 W/m2 CLR
23:10 18.6 °C 12.6 °C 1031 hPa East 4.8 km/h 4.8 km/h 68% 0 mm WeatherDisplay:10.37 W/m2 CLR
23:15 18.6 °C 12.6 °C 1031 hPa East 8 km/h 8 km/h 68% 0 mm WeatherDisplay:10.37 W/m2 CLR
23:20 18.5 °C 12.7 °C 1031 hPa East 8 km/h 8 km/h 69% 0 mm WeatherDisplay:10.37 W/m2 CLR
23:25 18.4 °C 12.6 °C 1031 hPa East 8 km/h 8 km/h 69% 0 mm WeatherDisplay:10.37 W/m2 CLR
23:30 18.4 °C 12.6 °C 1031 hPa East 8 km/h 8 km/h 69% 0 mm WeatherDisplay:10.37 W/m2 CLR
23:40 18.3 °C 12.6 °C 1031 hPa East 8 km/h 8 km/h 69% 0 mm WeatherDisplay:10.37 W/m2 CLR
23:45 18.3 °C 12.5 °C 1031 hPa East 8 km/h 8 km/h 69% 0 mm WeatherDisplay:10.37 W/m2 CLR
23:50 18.2 °C 12.6 °C 1031 hPa East 8 km/h 8 km/h 70% 0 mm WeatherDisplay:10.37 W/m2 CLR
23:55 18.1 °C 12.6 °C 1031 hPa East 8 km/h 8 km/h 70% 0 mm WeatherDisplay:10.37 W/m2 CLR
Piedmont Bend
Compliments of Weather Underground - 4 mb